When you browse on this site, cookies collect data to enhance your experience and personalize the content and advertising you see.
Visit our Privacy Policy to learn more. By continuing to use the site, you agree to this use of cookies and data.

Previsão horária em Vystrelovo

Hoje, 5 Agosto, Quarta-feira

Tempo Temperatura Precipitação Vento Pressão Humidade
00:00 +19°C° 1.4 mm 4 m/s 749 mmHg 97%
01:00 +19°C° 1.4 mm 3 m/s 749 mmHg 97%
02:00 +18°C° 1.4 mm 3 m/s 750 mmHg 97%
03:00 +18°C° 0.1 mm 3 m/s 750 mmHg 97%
04:00 +17°C° 0.1 mm 3 m/s 750 mmHg 97%
05:00 +17°C° 0.1 mm 3 m/s 751 mmHg 97%
06:00 +17°C° 0 mm 3 m/s 752 mmHg 94%
07:00 +17°C° 0 mm 2 m/s 752 mmHg 92%
08:00 +18°C° 0 mm 2 m/s 753 mmHg 90%
09:00 +19°C° 0 mm 2 m/s 753 mmHg 80%
10:00 +21°C° 0 mm 2 m/s 754 mmHg 70%
11:00 +23°C° 0 mm 2 m/s 754 mmHg 60%
12:00 +24°C° 0 mm 2 m/s 755 mmHg 56%
13:00 +24°C° 0 mm 2 m/s 755 mmHg 53%
14:00 +25°C° 0 mm 2 m/s 755 mmHg 49%
15:00 +25°C° 0 mm 2 m/s 755 mmHg 51%
16:00 +24°C° 0 mm 2 m/s 756 mmHg 53%
17:00 +24°C° 0 mm 2 m/s 756 mmHg 54%
18:00 +21°C° 0 mm 2 m/s 756 mmHg 60%
19:00 +20°C° 0 mm 2 m/s 756 mmHg 66%
20:00 +18°C° 0 mm 2 m/s 757 mmHg 72%
21:00 +17°C° 0 mm 2 m/s 757 mmHg 72%
22:00 +16°C° 0 mm 1 m/s 757 mmHg 72%
23:00 +15°C° 0 mm 1 m/s 758 mmHg 72%

Amanhã, 6 Agosto, Quinta-feira

Tempo Temperatura Precipitação Vento Pressão Humidade
00:00 +14°C° 0 mm 1 m/s 758 mmHg 74%
01:00 +14°C° 0 mm 1 m/s 759 mmHg 76%
02:00 +13°C° 0 mm 1 m/s 759 mmHg 79%
03:00 +13°C° 0 mm 1 m/s 759 mmHg 82%
04:00 +12°C° 0 mm 1 m/s 759 mmHg 85%
05:00 +12°C° 0 mm 1 m/s 759 mmHg 89%
06:00 +14°C° 0 mm 2 m/s 760 mmHg 82%
07:00 +16°C° 0 mm 2 m/s 760 mmHg 75%
08:00 +18°C° 0 mm 2 m/s 760 mmHg 68%
09:00 +19°C° 0 mm 2 m/s 761 mmHg 63%
10:00 +20°C° 0 mm 2 m/s 761 mmHg 59%
11:00 +21°C° 0 mm 2 m/s 761 mmHg 55%
12:00 +21°C° 0 mm 3 m/s 761 mmHg 56%
13:00 +22°C° 0 mm 3 m/s 761 mmHg 57%
14:00 +22°C° 0 mm 3 m/s 761 mmHg 58%
15:00 +23°C° 0 mm 2 m/s 761 mmHg 61%
16:00 +21°C° 0 mm 2 m/s 761 mmHg 63%
17:00 +22°C° 0 mm 1 m/s 761 mmHg 66%
18:00 +21°C° 0 mm 1 m/s 761 mmHg 72%
19:00 +20°C° 0 mm 1 m/s 761 mmHg 78%
20:00 +17°C° 0 mm 0 m/s 761 mmHg 84%
21:00 +18°C° 0 mm 1 m/s 761 mmHg 86%
22:00 +18°C° 0 mm 1 m/s 762 mmHg 89%
23:00 +16°C° 0 mm 1 m/s 762 mmHg 91%

Depois de amanhã, 7 Agosto, Sexta-feira

Tempo Temperatura Precipitação Vento Pressão Humidade
00:00 +16°C° 0 mm 1 m/s 762 mmHg 93%
01:00 +16°C° 0 mm 1 m/s 762 mmHg 94%
02:00 +15°C° 0 mm 1 m/s 762 mmHg 96%
03:00 +15°C° 0 mm 1 m/s 762 mmHg 96%
04:00 +15°C° 0 mm 1 m/s 762 mmHg 96%
05:00 +15°C° 0 mm 1 m/s 763 mmHg 96%
06:00 +16°C° 0 mm 1 m/s 763 mmHg 92%
07:00 +19°C° 0 mm 1 m/s 763 mmHg 87%
08:00 +20°C° 0 mm 1 m/s 763 mmHg 82%
09:00 +21°C° 0 mm 1 m/s 763 mmHg 78%
10:00 +22°C° 0 mm 1 m/s 763 mmHg 75%
11:00 +23°C° 0 mm 1 m/s 763 mmHg 71%
12:00 +24°C° 0.5 mm 1 m/s 763 mmHg 73%
13:00 +24°C° 0.5 mm 2 m/s 763 mmHg 75%
14:00 +24°C° 0.5 mm 2 m/s 762 mmHg 77%
15:00 +24°C° 0.6 mm 2 m/s 762 mmHg 78%
16:00 +24°C° 0.6 mm 1 m/s 762 mmHg 79%
17:00 +24°C° 0.6 mm 1 m/s 762 mmHg 79%
18:00 +22°C° 0.1 mm 1 m/s 762 mmHg 83%
19:00 +21°C° 0.1 mm 1 m/s 762 mmHg 86%
20:00 +20°C° 0.1 mm 1 m/s 762 mmHg 89%
21:00 +19°C° 0 mm 1 m/s 762 mmHg 90%
22:00 +18°C° 0 mm 1 m/s 762 mmHg 90%
23:00 +18°C° 0 mm 1 m/s 762 mmHg 90%

8 Agosto, Sábado

Tempo Temperatura Precipitação Vento Pressão Humidade
00:00 +18°C° 0 mm 1 m/s 762 mmHg 90%
01:00 +16°C° 0 mm 1 m/s 762 mmHg 90%
02:00 +16°C° 0 mm 1 m/s 762 mmHg 89%
03:00 +16°C° 0 mm 1 m/s 762 mmHg 90%
04:00 +16°C° 0 mm 1 m/s 762 mmHg 91%
05:00 +16°C° 0 mm 1 m/s 762 mmHg 92%
06:00 +19°C° 0.1 mm 1 m/s 762 mmHg 89%
07:00 +20°C° 0.1 mm 1 m/s 762 mmHg 86%
08:00 +21°C° 0.1 mm 1 m/s 761 mmHg 83%
09:00 +22°C° 0.1 mm 1 m/s 761 mmHg 79%
10:00 +24°C° 0.1 mm 1 m/s 761 mmHg 74%
11:00 +25°C° 0.1 mm 1 m/s 761 mmHg 69%
12:00 +25°C° 0.3 mm 1 m/s 760 mmHg 68%
13:00 +25°C° 0.3 mm 1 m/s 760 mmHg 67%
14:00 +26°C° 0.3 mm 1 m/s 760 mmHg 65%
15:00 +26°C° 0.2 mm 1 m/s 759 mmHg 66%
16:00 +26°C° 0.2 mm 1 m/s 759 mmHg 66%
17:00 +26°C° 0.2 mm 1 m/s 759 mmHg 66%
18:00 +24°C° 0 mm 1 m/s 759 mmHg 72%
19:00 +22°C° 0 mm 1 m/s 758 mmHg 79%
20:00 +20°C° 0 mm 1 m/s 758 mmHg 86%
21:00 +20°C° 0 mm 1 m/s 758 mmHg 87%
22:00 +19°C° 0 mm 1 m/s 758 mmHg 89%
23:00 +18°C° 0 mm 1 m/s 758 mmHg 90%

9 Agosto, Domingo

Tempo Temperatura Precipitação Vento Pressão Humidade
00:00 +18°C° 0 mm 1 m/s 758 mmHg 91%
01:00 +18°C° 0 mm 1 m/s 758 mmHg 93%
02:00 +16°C° 0 mm 1 m/s 758 mmHg 94%
03:00 +16°C° 0 mm 1 m/s 757 mmHg 95%
04:00 +16°C° 0 mm 1 m/s 757 mmHg 96%
05:00 +16°C° 0 mm 1 m/s 757 mmHg 96%
06:00 +18°C° 0 mm 1 m/s 757 mmHg 92%
07:00 +20°C° 0 mm 1 m/s 757 mmHg 87%
08:00 +21°C° 0 mm 1 m/s 757 mmHg 82%
09:00 +23°C° 0.1 mm 2 m/s 757 mmHg 75%
10:00 +24°C° 0.1 mm 2 m/s 756 mmHg 68%
11:00 +25°C° 0.1 mm 2 m/s 756 mmHg 60%
12:00 +26°C° 0 mm 2 m/s 756 mmHg 58%
13:00 +26°C° 0 mm 2 m/s 756 mmHg 56%
14:00 +26°C° 0 mm 2 m/s 755 mmHg 53%
15:00 +26°C° 0 mm 2 m/s 755 mmHg 56%
16:00 +26°C° 0 mm 3 m/s 755 mmHg 58%
17:00 +25°C° 0 mm 3 m/s 755 mmHg 61%
18:00 +24°C° 0 mm 2 m/s 755 mmHg 69%
19:00 +21°C° 0 mm 2 m/s 755 mmHg 77%
20:00 +19°C° 0 mm 2 m/s 754 mmHg 85%
21:00 +18°C° 0 mm 2 m/s 755 mmHg 87%
22:00 +19°C° 0 mm 1 m/s 755 mmHg 89%
23:00 +18°C° 0 mm 1 m/s 755 mmHg 91%

10 Agosto, Segunda-feira

Tempo Temperatura Precipitação Vento Pressão Humidade
00:00 +18°C° 0 mm 1 m/s 755 mmHg 92%
01:00 +16°C° 0 mm 1 m/s 755 mmHg 93%
02:00 +16°C° 0 mm 1 m/s 755 mmHg 95%
03:00 +16°C° 0 mm 1 m/s 755 mmHg 95%
04:00 +15°C° 0 mm 1 m/s 754 mmHg 95%
05:00 +15°C° 0 mm 2 m/s 754 mmHg 96%
06:00 +17°C° 0 mm 2 m/s 754 mmHg 88%
07:00 +19°C° 0 mm 2 m/s 754 mmHg 81%
08:00 +20°C° 0 mm 2 m/s 754 mmHg 74%
09:00 +23°C° 0.1 mm 2 m/s 754 mmHg 68%
10:00 +24°C° 0.1 mm 2 m/s 754 mmHg 62%
11:00 +26°C° 0.1 mm 1 m/s 754 mmHg 56%
12:00 +26°C° 1 mm 2 m/s 754 mmHg 62%
13:00 +25°C° 1 mm 2 m/s 754 mmHg 68%
14:00 +25°C° 1 mm 3 m/s 753 mmHg 74%
15:00 +25°C° 0.6 mm 3 m/s 753 mmHg 74%
16:00 +25°C° 0.6 mm 3 m/s 753 mmHg 75%
17:00 +25°C° 0.6 mm 3 m/s 753 mmHg 76%
18:00 +22°C° 0.1 mm 3 m/s 753 mmHg 81%
19:00 +21°C° 0.1 mm 2 m/s 753 mmHg 85%
20:00 +19°C° 0.1 mm 2 m/s 753 mmHg 90%
21:00 +19°C° 0 mm 2 m/s 754 mmHg 92%
22:00 +18°C° 0 mm 2 m/s 754 mmHg 94%
23:00 +17°C° 0 mm 2 m/s 754 mmHg 96%
Mostrar mais